Regional Weather Roundup
Issued by NWS

Home | Current Version | Previous Version | Text Only | Print | Product List | Glossary Off
Versions: 1 2 3 4 5 6 7 8 9 10 11 12 13 14 15 16 17 18 19 20 21 22 23 24 25 26

000
ASUS45 KTFX 260010
RWRMT
MONTANA REGIONAL WEATHER ROUNDUP
NATIONAL WEATHER SERVICE GREAT FALLS MT
600 PM MDT WED MAY 25 2016

NOTE: "FAIR" INDICATES FEW OR NO CLOUDS BELOW 12000 FEET WITH NO
SIGNIFICANT WEATHER AND/OR OBSTRUCTIONS TO VISIBILITY.

MTZ001>007-043-260100-
WEST OF THE DIVIDE

CITY           SKY/WX    TMP DP  RH WIND       PRES   REMARKS
KALISPELL      PTSUNNY   63  48  58 W13G20    29.93R
MISSOULA       PTSUNNY   67  40  37 W12       29.96F
BUTTE          CLOUDY    61  28  28 NW13G28   29.98S
MULLAN PASS    LGT RAIN  47  41  80 VRB5      30.07S
ANACONDA         N/A     61  30  31 W14G20    29.97S
DEER LODGE       N/A     59  37  44 NW14      29.97S
EUREKA           N/A     66  45  45 S7        29.92R
HAMILTON         N/A     63  37  39 N8        29.97S
LIBBY            N/A     66  43  42 NW5       29.93R
$$

MTZ008-052>055-260100-
SOUTHWEST MONTANA

CITY           SKY/WX    TMP DP  RH WIND       PRES   REMARKS
BOZEMAN        MOSUNNY   66  33  29 W15G22    29.91F
DILLON         MOSUNNY   63  29  27 SW3       29.95S
ENNIS          PTSUNNY   59  34  38 CALM      30.01R
$$

MTZ009-010-012-014-046-048-049-054-260100-
EAST SLOPES AND CENTRAL MONTANA

CITY           SKY/WX    TMP DP  RH WIND       PRES   REMARKS
CUT BANK         N/A     66  37  34 N16G22    29.88R
GREAT FALLS    CLOUDY    59  43  55 SW13      29.87F
MALMSTROM AFB  MOSUNNY   62  42  46 W16G22    29.87S
HELENA         PTSUNNY   68  36  30 W21G28    29.89F
CHOTEAU          N/A     64  43  45 W13G20    29.89S
$$

MTZ011-013-016-021-045-047-050-051-260100-
NORTH CENTRAL MONTANA

CITY           SKY/WX    TMP DP  RH WIND       PRES   REMARKS
LEWISTOWN      LGT RAIN  50  43  77 NE8       29.89S
N BAR RANCH    PTSUNNY   52  41  66 NW7       29.92R
CHINOOK          N/A     55  46  71 SE5       29.85F
$$

MTZ017>020-022>027-061-062-260100-
NORTHEAST MONTANA

CITY           SKY/WX    TMP DP  RH WIND       PRES   REMARKS
GLASGOW        PTSUNNY   64  40  41 CALM      29.81F
JORDAN           N/A     66  40  38 W6        29.83S
SIDNEY         MOSUNNY   62  46  55 N10       29.82S
WOLF POINT     CLOUDY    64  48  56 NE14      29.83S
PLENTYWOOD       N/A     57  48  72 N13       29.82F
$$

MTZ028>42-056>058-260100-
SOUTHCENTRAL AND SOUTHEAST MONTANA

CITY           SKY/WX    TMP DP  RH WIND       PRES   REMARKS
BAKER          PTSUNNY   62  42  47 NW8       29.86S
BILLINGS       PTSUNNY   68  37  32 N6        29.85R
LIVINGSTON     MOSUNNY   64  32  30 W13       29.89F
MILES CITY     LGT RAIN  63  46  54 SW6       29.84S
FORSYTH          N/A     57  50  77 S5        29.83F
$$

REGIONAL REPORTS...DAKOTAS

CITY           SKY/WX    TMP DP  RH WIND       PRES   REMARKS
WILLISTON      PTSUNNY   59  49  69 NW12      29.81F
MINOT          LGT RAIN  61  58  90 E9        29.75R
DICKINSON      MOSUNNY   57  43  59 NW17      29.81R
BEACH            N/A     59  41  51 NW12G18   29.87S
CROSBY         CLOUDY    52  52 100 NW15      29.81F FOG
WATFORD CITY   PTSUNNY   57  50  77 N10G17    29.81S
BISMARCK       TSTM      59  56  89 SE5       29.75R
GRAND FORKS    CLOUDY    62  59  90 NE7       29.66F
FARGO          MOSUNNY   66  58  75 W9        29.72S
BUFFALO SD       N/A     64  42  44 NW14      29.79F
RAPID CITY     LGT RAIN  62  47  57 NE5       29.88R
$$

REGIONAL REPORTS...WYOMING/IDAHO/WASHINGTON

CITY           SKY/WX    TMP DP  RH WIND       PRES   REMARKS
GILLETTE       CLOUDY    55  42  61 E9        29.89F
SHERIDAN       CLOUDY    57  46  66 W5        29.92R
BUFFALO WY     CLOUDY    57  42  57 SW3       29.94S
CODY           CLOUDY    55  41  58 N7        29.93S
YELLOWSTONE LA   N/A     39  33  79 NW8G20    30.10R
IDAHO FALLS    CLOUDY    55  42  61 S17       30.02S
SALMON         PTSUNNY   64  37  36 N8        29.93S
BOISE          PTSUNNY   65  38  36 N6        29.98F
SPOKANE        MOSUNNY   72  41  32 W16       29.97F
$$

REGIONAL REPORTS...ALBERTA

CITY           SKY/WX    TMP DP  RH WIND       PRES   REMARKS
EDMONTON       LGT RAIN  63  48  59 NW12G21   29.83R
CALGARY        MOSUNNY   66  41  39 VRB2      29.86F
LETHBRIDGE     MOSUNNY   66  39  37 NE3       29.87S
MEDICINE HAT   MOSUNNY   64  43  45 N7        29.85S
WATERTON GATE    N/A     54  46  76 SW13G18     N/A
MILK RIVER       N/A     61  41  48 N9          N/A
$$

REGIONAL REPORTS...SASKATCHEWAN

CITY           SKY/WX    TMP DP  RH WIND       PRES   REMARKS
SWIFT CURRENT  PTSUNNY   59  46  63 NE12      29.85R
REGINA         LGT RAIN  55  50  82 N10       29.85F
SASKATOON      PTSUNNY   64  48  55 NE8       29.87S
CYPRESS HILLS    N/A     52  41  66 N6          N/A
ROCKGLEN         N/A     57  45  62 N2          N/A
$$




USA.gov is the U.S. government's official web portal to all federal, state and local government web resources and services.